Sauk Centre, MN

3:53 PM CST on December 10, 2019 (GMT -0600)
Sauk Centre

Weather History for KD39 - October, 2019

Change the Weather History Date:

Wednesday, October 2, 2019

  Actual Average (KGHW) Record (KGHW)
Temperature  
Mean Temperature 44 °F -  
Max Temperature 47 °F 65 °F 90 °F (1953)
Min Temperature 41 °F 38 °F 20 °F (1993)
Degree Days  
Heating Degree Days 21    
Moisture  
Dew Point 40 °F    
Average Humidity 86    
Maximum Humidity 99    
Minimum Humidity 78    
Precipitation  
Precipitation 0.10 in - - ()
Sea Level Pressure  
Sea Level Pressure 30.10 in    
Wind  
Wind Speed 9 mph ()    
Max Wind Speed 16 mph    
Max Gust Speed 21 mph    
Visibility 8.8 miles    
Events Rain    
Averages and records for this station are not official NWS values.
T = Trace of Precipitation, MM = Missing Value Source: Averaged Metar Reports

Daily Weather History Graph

Daily Weather History Graph

Search for Another Location

Airport or City:

Astronomy

Oct. 02, 2019 Rise Set
Actual Time 7:19 AM CDT 6:58 PM CDT
Civil Twilight 6:49 AM CDT 7:27 PM CDT
Nautical Twilight 6:14 AM CDT 8:02 PM CDT
Astronomical Twilight 5:39 AM CDT 8:37 PM CDT
Moon 11:58 AM CDT (10/2) 9:39 PM CDT (10/2)
Length of Visible Light 12h 38m
Length of Day
11h 39m
Waxing Crescent, 20% of the Moon is Illuminated
Oct 2
Waxing Crescent
Oct 5
First Quarter
Oct 13
Full
Oct 21
Last Quarter
Oct 27
New

Hourly Weather History & Observations

Time (CDT) Temp. Windchill Dew Point Humidity Pressure Visibility Wind Dir Wind Speed Gust Speed Precip Events Conditions
12:15 AM 43.7 °F 38.1 °F 38.7 °F 82% 30.10 in 10.0 mi North 10.4 mph - N/A   Overcast
12:37 AM 43.9 °F 38.8 °F 38.8 °F 82% 30.10 in 10.0 mi NNE 9.2 mph - N/A   Overcast
12:56 AM 44.1 °F 38.1 °F 38.8 °F 82% 30.11 in 10.0 mi NE 11.5 mph 18.4 mph N/A   Overcast
1:15 AM 43.9 °F 37.2 °F 38.7 °F 82% 30.10 in 10.0 mi NE 13.8 mph - N/A   Overcast
1:16 AM 43.9 °F 37.2 °F 38.7 °F 82% 30.10 in 10.0 mi NE 13.8 mph - N/A   Overcast
1:35 AM 43.7 °F 38.6 °F 38.3 °F 81% 30.11 in 10.0 mi NNE 9.2 mph 17.3 mph N/A   Overcast
1:36 AM 43.7 °F 38.6 °F 38.5 °F 82% 30.11 in 10.0 mi NNE 9.2 mph 17.3 mph N/A   Overcast
1:59 AM 43.5 °F 36.7 °F 37.8 °F 80% 30.13 in 10.0 mi NNE 13.8 mph 19.6 mph N/A   Overcast
2:35 AM 43.3 °F 37.2 °F 37.9 °F 81% 30.12 in 10.0 mi NE 11.5 mph 18.4 mph N/A   Overcast
2:36 AM 43.3 °F 36.8 °F 37.8 °F 81% 30.12 in 10.0 mi NNE 12.7 mph 18.4 mph N/A   Overcast
2:55 AM 43.3 °F 38.1 °F 37.8 °F 81% 30.14 in 10.0 mi NNE 9.2 mph - N/A   Overcast
2:56 AM 43.3 °F 38.6 °F 37.8 °F 81% 30.14 in 10.0 mi NNE 8.1 mph - N/A   Overcast
3:15 AM 43.3 °F 37.7 °F 37.9 °F 81% 30.13 in 10.0 mi NNE 10.4 mph - N/A   Overcast
3:37 AM 43.0 °F 36.4 °F 37.8 °F 82% 30.11 in 10.0 mi NNE 12.7 mph - N/A   Overcast
3:55 AM 42.8 °F 37.5 °F 37.9 °F 83% 30.11 in 10.0 mi North 9.2 mph - N/A   Scattered Clouds
4:15 AM 42.1 °F 36.6 °F 37.9 °F 85% 30.12 in 10.0 mi North 9.2 mph - N/A   Scattered Clouds
4:16 AM 41.9 °F 36.3 °F 37.8 °F 85% 30.12 in 10.0 mi North 9.2 mph - N/A   Scattered Clouds
4:35 AM 42.1 °F 37.7 °F 37.9 °F 85% 30.14 in 10.0 mi North 6.9 mph - N/A   Mostly Cloudy
4:36 AM 41.9 °F 37.5 °F 37.9 °F 86% 30.14 in 10.0 mi North 6.9 mph - N/A   Mostly Cloudy
4:58 AM 41.9 °F 37.5 °F 38.3 °F 87% 30.14 in 10.0 mi North 6.9 mph - N/A   Mostly Cloudy
5:16 AM 42.3 °F 37.9 °F 38.1 °F 85% 30.14 in 10.0 mi North 6.9 mph - N/A   Overcast
5:35 AM 42.6 °F 37.8 °F 38.3 °F 85% 30.14 in 10.0 mi North 8.1 mph - N/A   Overcast
5:36 AM 42.6 °F 37.8 °F 38.3 °F 85% 30.14 in 10.0 mi North 8.1 mph - N/A   Overcast
5:55 AM 43.0 °F 36.4 °F 38.3 °F 84% 30.13 in 10.0 mi North 12.7 mph - N/A   Overcast
5:56 AM 43.0 °F 36.8 °F 38.3 °F 84% 30.13 in 10.0 mi North 11.5 mph - N/A   Overcast
6:15 AM 43.0 °F 37.7 °F 38.5 °F 84% 30.13 in 10.0 mi North 9.2 mph - N/A   Overcast
6:20 AM 43.0 °F 38.2 °F 38.5 °F 84% 30.13 in 10.0 mi North 8.1 mph - N/A   Overcast
6:37 AM 43.3 °F 37.7 °F 38.7 °F 84% 30.14 in 10.0 mi North 10.4 mph - N/A   Overcast
6:55 AM 43.3 °F 37.7 °F 38.7 °F 84% 30.14 in 10.0 mi North 10.4 mph - N/A   Overcast
7:15 AM 43.2 °F 37.0 °F 38.7 °F 84% 30.12 in 10.0 mi NNE 11.5 mph - N/A   Overcast
7:35 AM 43.3 °F 36.5 °F 39.0 °F 85% 30.12 in 10.0 mi NNE 13.8 mph - N/A   Overcast
7:36 AM 43.3 °F 36.1 °F 39.0 °F 85% 30.12 in 10.0 mi NNE 15.0 mph - N/A   Overcast
7:59 AM 43.7 °F 37.7 °F 39.2 °F 84% 30.14 in 10.0 mi NNE 11.5 mph 17.3 mph N/A   Overcast
8:16 AM 44.1 °F 38.1 °F 39.4 °F 84% 30.14 in 10.0 mi NNE 11.5 mph - N/A   Overcast
8:36 AM 44.2 °F 39.7 °F 39.7 °F 84% 30.13 in 10.0 mi NNE 8.1 mph - N/A   Overcast
8:55 AM 44.8 °F 39.0 °F 39.9 °F 83% 30.13 in 10.0 mi NE 11.5 mph - N/A   Overcast
8:56 AM 45.0 °F 39.3 °F 40.1 °F 83% 30.13 in 10.0 mi NNE 11.5 mph - N/A   Overcast
9:15 AM 45.3 °F 39.7 °F 40.1 °F 82% 30.12 in 10.0 mi NNE 11.5 mph 16.1 mph N/A   Overcast
9:19 AM 45.1 °F 39.1 °F 39.7 °F 81% 30.12 in 10.0 mi NE 12.7 mph 18.4 mph N/A   Overcast
9:37 AM 45.3 °F 39.0 °F 40.1 °F 82% 30.11 in 10.0 mi NE 13.8 mph 20.7 mph N/A   Overcast
9:55 AM 45.5 °F 40.3 °F 40.3 °F 82% 30.11 in 10.0 mi NE 10.4 mph 18.4 mph N/A   Overcast
10:15 AM 45.5 °F 41.8 °F 40.1 °F 81% 30.14 in 10.0 mi ENE 6.9 mph - N/A   Overcast
10:16 AM 45.5 °F 41.8 °F 40.3 °F 82% 30.14 in 10.0 mi ENE 6.9 mph - N/A   Overcast
10:35 AM 45.7 °F 41.0 °F 40.3 °F 81% 30.14 in 10.0 mi ENE 9.2 mph - N/A   Overcast
10:36 AM 45.7 °F 40.6 °F 40.3 °F 81% 30.14 in 10.0 mi ENE 10.4 mph - N/A   Overcast
10:59 AM 45.9 °F 41.2 °F 40.6 °F 82% 30.15 in 10.0 mi ENE 9.2 mph - N/A   Overcast
11:16 AM 46.0 °F 43.1 °F 40.8 °F 82% 30.14 in 10.0 mi East 5.8 mph - N/A   Overcast
11:36 AM 46.0 °F 43.1 °F 40.8 °F 82% 30.15 in 10.0 mi ENE 5.8 mph - N/A   Overcast
11:55 AM 46.4 °F 42.9 °F 40.5 °F 80% 30.14 in 10.0 mi East 6.9 mph - N/A   Overcast
11:56 AM 46.4 °F 42.4 °F 40.5 °F 80% 30.14 in 10.0 mi ENE 8.1 mph - N/A   Overcast
12:15 PM 46.4 °F 41.5 °F 40.5 °F 80% 30.14 in 10.0 mi ENE 10.4 mph - N/A   Overcast
12:20 PM 46.0 °F 41.9 °F 40.3 °F 80% 30.14 in 10.0 mi ENE 8.1 mph - N/A   Overcast
12:38 PM 46.4 °F 42.9 °F 41.0 °F 81% 30.12 in 10.0 mi ENE 6.9 mph - N/A   Overcast
12:55 PM 46.4 °F 40.7 °F 41.0 °F 81% 30.12 in 10.0 mi NE 12.7 mph 16.1 mph N/A   Overcast
1:15 PM 46.8 °F - 40.8 °F 80% 30.10 in 10.0 mi ENE 11.5 mph 16.1 mph N/A   Mostly Cloudy
1:16 PM 46.8 °F - 40.8 °F 80% 30.10 in 10.0 mi ENE 13.8 mph - N/A   Mostly Cloudy
1:35 PM 46.8 °F - 41.5 °F 82% 30.11 in 10.0 mi East 11.5 mph 16.1 mph N/A Rain Light Rain
1:36 PM 46.8 °F - 41.5 °F 82% 30.11 in 10.0 mi East 12.7 mph 16.1 mph N/A Rain Light Rain
1:58 PM 47.3 °F - 41.2 °F 79% 30.10 in 10.0 mi ENE 9.2 mph 16.1 mph N/A   Overcast
2:16 PM 46.9 °F - 40.8 °F 79% 30.08 in 10.0 mi ENE 15.0 mph 19.6 mph N/A   Overcast
2:36 PM 46.9 °F - 40.6 °F 79% 30.07 in 10.0 mi ENE 16.1 mph - N/A   Overcast
2:55 PM 47.3 °F - 40.6 °F 78% 30.07 in 10.0 mi ENE 11.5 mph 17.3 mph N/A   Overcast
3:15 PM 47.3 °F - 40.8 °F 78% 30.06 in 10.0 mi ENE 13.8 mph - N/A   Overcast
3:19 PM 47.3 °F - 40.6 °F 78% 30.05 in 10.0 mi ENE 13.8 mph - N/A   Overcast
3:38 PM 46.9 °F - 40.6 °F 79% 30.06 in 10.0 mi East 11.5 mph 16.1 mph N/A   Overcast
3:55 PM 47.1 °F - 40.6 °F 78% 30.06 in 10.0 mi ENE 10.4 mph 18.4 mph N/A   Overcast
4:15 PM 47.1 °F - 41.0 °F 79% 30.04 in 10.0 mi ENE 15.0 mph - N/A   Overcast
4:35 PM 47.1 °F - 41.0 °F 79% 30.03 in 10.0 mi ENE 13.8 mph - N/A   Overcast
4:36 PM 47.1 °F - 41.0 °F 79% 30.03 in 10.0 mi NE 13.8 mph - N/A   Overcast
4:58 PM 46.6 °F - 41.2 °F 81% 30.06 in 10.0 mi NE 6.9 mph - N/A   Overcast
5:17 PM 46.4 °F 42.4 °F 41.4 °F 83% 30.07 in 10.0 mi East 8.1 mph - N/A   Overcast
5:35 PM 46.2 °F 43.3 °F 41.9 °F 85% 30.07 in 7.0 mi ENE 5.8 mph - N/A Rain Light Rain
5:36 PM 46.2 °F 43.3 °F 41.9 °F 85% 30.07 in 7.0 mi ENE 5.8 mph - N/A Rain Light Rain
5:55 PM 45.0 °F 39.7 °F 42.8 °F 92% 30.04 in 4.0 mi ENE 10.4 mph - N/A Rain Light Rain
5:56 PM 45.0 °F 39.3 °F 42.8 °F 92% 30.04 in 4.0 mi ENE 11.5 mph 16.1 mph N/A Rain Light Rain
6:18 PM 45.0 °F 43.5 °F 43.3 °F 94% 30.05 in 10.0 mi NE 3.5 mph - N/A   Drizzle
6:37 PM 45.0 °F 41.8 °F 43.2 °F 93% 30.06 in 10.0 mi NNE 5.8 mph - N/A   Light Drizzle
6:56 PM 44.8 °F 41.0 °F 43.3 °F 95% 30.04 in 10.0 mi East 6.9 mph - N/A   Overcast
7:15 PM 44.6 °F 40.7 °F 42.8 °F 93% 30.04 in 10.0 mi ENE 6.9 mph - N/A   Overcast
7:16 PM 44.6 °F 40.7 °F 42.8 °F 93% 30.04 in 10.0 mi ENE 6.9 mph - N/A   Overcast
7:35 PM 44.6 °F 42.2 °F 43.0 °F 94% 30.04 in 5.0 mi NE 4.6 mph - N/A   Overcast
7:40 PM 44.6 °F 41.4 °F 43.2 °F 95% 30.03 in 5.0 mi ENE 5.8 mph - N/A   Overcast
7:57 PM 44.1 °F 42.5 °F 43.0 °F 96% 30.05 in 4.0 mi NE 3.5 mph - N/A   Drizzle
8:15 PM 44.1 °F 41.5 °F 43.2 °F 97% 30.06 in 4.0 mi North 4.6 mph - 0.01 in Rain Rain
8:35 PM 43.7 °F 41.1 °F 43.2 °F 98% 30.06 in 3.0 mi NNW 4.6 mph - 0.06 in Rain Rain
8:36 PM 43.7 °F 41.1 °F 43.2 °F 98% 30.06 in 4.0 mi NNW 4.6 mph - 0.06 in Rain Rain
8:55 PM 43.7 °F 40.3 °F 43.2 °F 98% 30.06 in 4.0 mi North 5.8 mph - 0.08 in Rain Heavy Rain
9:18 PM 43.7 °F 41.1 °F 43.0 °F 97% 30.06 in 5.0 mi North 4.6 mph - 0.01 in Rain Rain
9:37 PM 43.7 °F 40.3 °F 43.0 °F 97% 30.06 in 7.0 mi NNE 5.8 mph - 0.01 in   Drizzle
9:56 PM 43.7 °F 39.7 °F 43.0 °F 97% 30.06 in 5.0 mi North 6.9 mph - 0.01 in   Drizzle
10:15 PM 43.7 °F 39.7 °F 43.0 °F 97% 30.06 in 5.0 mi North 6.9 mph - N/A   Light Drizzle
10:35 PM 43.7 °F 40.3 °F 43.0 °F 97% 30.05 in 5.0 mi North 5.8 mph - 0.01 in   Drizzle
10:39 PM 43.7 °F 40.3 °F 43.0 °F 97% 30.05 in 4.0 mi North 5.8 mph - 0.01 in Rain Rain
10:57 PM 43.3 °F 39.9 °F 43.0 °F 99% 30.04 in 5.0 mi North 5.8 mph - 0.01 in   Drizzle
11:35 PM 43.2 °F 40.5 °F 42.8 °F 99% 30.03 in 5.0 mi NNE 4.6 mph - N/A   Drizzle
11:36 PM 43.2 °F 39.7 °F 42.8 °F 99% 30.03 in 5.0 mi NNE 5.8 mph - N/A   Drizzle
11:55 PM 43.2 °F 39.7 °F 42.8 °F 99% 30.03 in 5.0 mi North 5.8 mph - N/A   Light Drizzle
11:56 PM 43.2 °F 39.7 °F 42.8 °F 99% 30.03 in 4.0 mi North 5.8 mph - N/A   Light Drizzle